Overview Statistics Trail Chart Weather Telemetry Raw packets
 

This is the latest recevied weather packets stored in our database for station/object K0QED. If no packets are shown the sender has not sent any weather packets the latest 10 day(s).

<< 80 81 82 83 84 85 86 >>
Time Temp. Humidity Pressure Rain* Wind** Luminosity Snow
1788040010 29.44° C 30% 1024.5 hPa 0 mm - 521 W/m² -
1788039705 29.44° C 31% 1024.7 hPa 0 mm - 536 W/m² -
1788039401 28.89° C 29% 1025 hPa 0 mm - 530 W/m² -
1788039096 29.44° C 30% 1024.9 hPa 0 mm - 551 W/m² -
1788038791 28.89° C 30% 1024.9 hPa 0 mm - 544 W/m² -
1788038497 29.44° C 31% 1024.9 hPa 0 mm - 499 W/m² -
1788038185 29.44° C 31% 1024.9 hPa 0 mm - 569 W/m² -
1788037885 28.89° C 31% 1024.6 hPa 0 mm - 584 W/m² -
1788037580 29.44° C 30% 1025.2 hPa 0 mm - 602 W/m² -
1788037275 29.44° C 31% 1025.2 hPa 0 mm - 604 W/m² -
1788036974 28.89° C 31% 1025.1 hPa 0 mm - 630 W/m² -
1788036671 28.33° C 31% 1025.2 hPa 0 mm - 636 W/m² -
1788036367 28.33° C 32% 1025.1 hPa 0 mm - 657 W/m² -
1788036061 27.78° C 32% 1025.5 hPa 0 mm - 650 W/m² -
1788035760 27.78° C 32% 1025.5 hPa 0 mm - 537 W/m² -
1788035456 28.89° C 31% 1025.6 hPa 0 mm - 638 W/m² -
1788035151 29.44° C 31% 1025.7 hPa 0 mm - 676 W/m² -
1788034848 28.89° C 32% 1026 hPa 0 mm - 693 W/m² -
1788034543 28.33° C 33% 1025.7 hPa 0 mm - 649 W/m² -
1788034239 27.78° C 32% 1026 hPa 0 mm - 516 W/m² -
1788033938 27.22° C 33% 1026.1 hPa 0 mm - 532 W/m² -
1788033634 27.78° C 32% 1026.4 hPa 0 mm - 511 W/m² -
1788033333 27.78° C 33% 1026.2 hPa 0 mm - 566 W/m² -
1788033029 27.22° C 34% 1026.2 hPa 0 mm - 514 W/m² -
1788032728 26.67° C 37% 1026.4 hPa 0 mm - 473 W/m² -

* Rain latest hour (hover to see other rain measurements)
** Current wind speed in m/s (hover to see current wind gust speed)